Humboldt, Iowa, United States (50548)
Lat: 42.72N, Lon: 94.22W
Wx Zone: IAZ024
Local Info
Past Weather Observations for Saturday, August 29, 2015

NOTE: This archive is for the closest National Weather Service station to Humboldt. Information may differ from the station used for current weather conditions.

Click here for Long-term Archive

Time Weather Temperature Dewpoint Humidity Pressure Winds Precip Visibility
23:55
Overcast
63°F / 17°C 59°F / 15°C 88% 30.06 in
(1018 mb)
Calm - 10SM
23:35
Overcast
63°F / 17°C 59°F / 15°C 88% 30.06 in
(1018 mb)
Calm - 10SM
23:15
Overcast
63°F / 17°C 61°F / 16°C 94% 30.06 in
(1018 mb)
Calm - 10SM
22:55
Overcast
64°F / 18°C 61°F / 16°C 88% 30.06 in
(1018 mb)
Calm - 8SM
22:35
Overcast
64°F / 18°C 61°F / 16°C 88% 30.06 in
(1018 mb)
SSE 3.5 mph
(SSE 6 kph)
- 10SM
22:15
Overcast
64°F / 18°C 61°F / 16°C 88% 30.06 in
(1018 mb)
Calm - 10SM
21:55
Overcast
64°F / 18°C 61°F / 16°C 88% 30.06 in
(1018 mb)
Calm - 10SM
21:35
Overcast
63°F / 17°C 61°F / 16°C 94% 30.06 in
(1018 mb)
S 3.5 mph
(S 6 kph)
- 10SM
21:15
Overcast
64°F / 18°C 61°F / 16°C 88% 30.06 in
(1018 mb)
Calm - 9SM
20:55
Overcast
64°F / 18°C 61°F / 16°C 88% 30.06 in
(1018 mb)
Calm - 10SM
20:35
Overcast
64°F / 18°C 61°F / 16°C 88% 30.06 in
(1018 mb)
Calm - 10SM
20:15
Overcast
64°F / 18°C 61°F / 16°C 88% 30.06 in
(1018 mb)
Calm - 9SM
19:55
Overcast
64°F / 18°C 61°F / 16°C 88% 30.06 in
(1018 mb)
Calm - 10SM
19:35
Overcast
64°F / 18°C 61°F / 16°C 88% 30.06 in
(1018 mb)
Calm - 10SM
19:15
Overcast
64°F / 18°C 61°F / 16°C 88% 30.06 in
(1018 mb)
Calm - 10SM
18:55
Overcast
64°F / 18°C 61°F / 16°C 88% 30.06 in
(1018 mb)
NW 3.5 mph
(NW 6 kph)
- 10SM
18:35
Overcast
66°F / 19°C 61°F / 16°C 83% 30.06 in
(1018 mb)
Calm - 10SM
18:15
Overcast
66°F / 19°C 61°F / 16°C 83% 30.06 in
(1018 mb)
Calm - 10SM
17:55
Mostly Cloudy
66°F / 19°C 61°F / 16°C 83% 30.06 in
(1018 mb)
SSW 4.6 mph
(SSW 7 kph)
- 10SM
17:35
Overcast
68°F / 20°C 63°F / 17°C 83% 30.06 in
(1018 mb)
WNW 3.5 mph
(WNW 6 kph)
- 10SM
17:15
Overcast
68°F / 20°C 61°F / 16°C 78% 30.06 in
(1018 mb)
WNW 3.5 mph
(WNW 6 kph)
- 10SM
16:55
Overcast
68°F / 20°C 61°F / 16°C 78% 30.06 in
(1018 mb)
SSW 3.5 mph
(SSW 6 kph)
- 10SM
16:35
Overcast
70°F / 21°C 61°F / 16°C 73% 30.06 in
(1018 mb)
Calm - 10SM
16:15
Overcast
70°F / 21°C 61°F / 16°C 73% 30.06 in
(1018 mb)
Calm - 10SM
15:55
Overcast
70°F / 21°C 61°F / 16°C 73% 30.06 in
(1018 mb)
N 3.5 mph
(N 6 kph)
- 10SM
15:35
Overcast
68°F / 20°C 63°F / 17°C 83% 30.06 in
(1018 mb)
NW 3.5 mph
(NW 6 kph)
- 10SM
15:15
Overcast
68°F / 20°C 61°F / 16°C 78% 30.06 in
(1018 mb)
Calm - 10SM
14:55
Overcast
68°F / 20°C 61°F / 16°C 78% 30.06 in
(1018 mb)
Calm - 10SM
14:35
Overcast
66°F / 19°C 61°F / 16°C 83% 30.06 in
(1018 mb)
Calm - 10SM
14:15
Overcast
66°F / 19°C 61°F / 16°C 83% 30.06 in
(1018 mb)
NW 4.6 mph
(NW 7 kph)
- 10SM
13:55
Overcast
66°F / 19°C 61°F / 16°C 83% 30.06 in
(1018 mb)
NNW 3.5 mph
(NNW 6 kph)
- 10SM
13:35
Overcast
66°F / 19°C 61°F / 16°C 83% 30.06 in
(1018 mb)
NNW 3.5 mph
(NNW 6 kph)
- 10SM
13:15
Overcast
66°F / 19°C 61°F / 16°C 83% 30.09 in
(1019 mb)
NW 4.6 mph
(NW 7 kph)
- 10SM
12:55
Overcast
64°F / 18°C 61°F / 16°C 88% 30.06 in
(1018 mb)
NNW 3.5 mph
(NNW 6 kph)
- 10SM
12:35
Overcast
64°F / 18°C 61°F / 16°C 88% 30.09 in
(1019 mb)
NNW 4.6 mph
(NNW 7 kph)
- 10SM
12:15
Overcast
64°F / 18°C 61°F / 16°C 88% 30.09 in
(1019 mb)
N 4.6 mph
(N 7 kph)
- 10SM
11:55
Overcast
64°F / 18°C 59°F / 15°C 83% 30.09 in
(1019 mb)
NNW 4.6 mph
(NNW 7 kph)
- 10SM
11:35
Overcast
63°F / 17°C 59°F / 15°C 88% 30.09 in
(1019 mb)
N 4.6 mph
(N 7 kph)
- 10SM
11:15
Overcast
63°F / 17°C 59°F / 15°C 88% 30.09 in
(1019 mb)
N 4.6 mph
(N 7 kph)
- 10SM
10:55
Overcast
63°F / 17°C 59°F / 15°C 88% 30.09 in
(1019 mb)
NNE 6.9 mph
(NNE 11 kph)
- 10SM
10:35
Overcast
63°F / 17°C 59°F / 15°C 88% 30.09 in
(1019 mb)
NNE 4.6 mph
(NNE 7 kph)
- 10SM
10:15
Overcast
63°F / 17°C 57°F / 14°C 83% 30.09 in
(1019 mb)
N 6.9 mph
(N 11 kph)
- 10SM
09:55
Overcast
63°F / 17°C 57°F / 14°C 83% 30.09 in
(1019 mb)
N 5.8 mph
(N 9 kph)
- 10SM
09:35
Overcast
63°F / 17°C 57°F / 14°C 83% 30.09 in
(1019 mb)
N 5.8 mph
(N 9 kph)
- 10SM
09:15
Overcast
61°F / 16°C 57°F / 14°C 88% 30.06 in
(1018 mb)
N 5.8 mph
(N 9 kph)
- 10SM
08:55
Overcast
61°F / 16°C 57°F / 14°C 88% 30.06 in
(1018 mb)
N 5.8 mph
(N 9 kph)
- 10SM
08:35
Overcast
61°F / 16°C 57°F / 14°C 88% 30.06 in
(1018 mb)
N 4.6 mph
(N 7 kph)
- 5SM
08:15
Overcast
61°F / 16°C 57°F / 14°C 88% 30.06 in
(1018 mb)
NNW 5.8 mph
(NNW 9 kph)
- 1 3/4SM
07:55
Overcast
59°F / 15°C 57°F / 14°C 94% 30.06 in
(1018 mb)
N 5.8 mph
(N 9 kph)
- 3/4SM
07:35
Overcast
59°F / 15°C 55°F / 13°C 88% 30.06 in
(1018 mb)
N 4.6 mph
(N 7 kph)
- 1SM
07:15
Overcast
59°F / 15°C 55°F / 13°C 88% 30.06 in
(1018 mb)
NNE 4.6 mph
(NNE 7 kph)
- 3/4SM
06:55
Overcast
57°F / 14°C 55°F / 13°C 94% 30.06 in
(1018 mb)
NNE 6.9 mph
(NNE 11 kph)
- 1/2SM
06:35
Overcast
57°F / 14°C 55°F / 13°C 94% 30.06 in
(1018 mb)
NE 8.1 mph
(NE 13 kph)
- 1/4SM
06:15
Overcast
57°F / 14°C 55°F / 13°C 94% 30.04 in
(1017 mb)
NNE 8.1 mph
(NNE 13 kph)
- 1/4SM
05:55
Overcast
59°F / 15°C 55°F / 13°C 88% 30.04 in
(1017 mb)
N 5.8 mph
(N 9 kph)
- 1 1/4SM
05:35
Overcast
59°F / 15°C 55°F / 13°C 88% 30.04 in
(1017 mb)
N 5.8 mph
(N 9 kph)
- 2 1/2SM
05:15
Overcast
59°F / 15°C 55°F / 13°C 88% 30.01 in
(1016 mb)
N 6.9 mph
(N 11 kph)
- 5SM
04:55
Overcast
59°F / 15°C 55°F / 13°C 88% 30.01 in
(1016 mb)
NNW 5.8 mph
(NNW 9 kph)
- 6SM
04:35
Overcast
59°F / 15°C 55°F / 13°C 88% 30.01 in
(1016 mb)
N 6.9 mph
(N 11 kph)
- 7SM
04:15
Overcast
59°F / 15°C 55°F / 13°C 88% 30.01 in
(1016 mb)
N 6.9 mph
(N 11 kph)
- 6SM
03:55
Overcast
59°F / 15°C 57°F / 14°C 94% 30.01 in
(1016 mb)
N 5.8 mph
(N 9 kph)
- 6SM
03:35
Overcast
59°F / 15°C 57°F / 14°C 94% 30.01 in
(1016 mb)
N 6.9 mph
(N 11 kph)
- 6SM
03:15
Overcast
61°F / 16°C 57°F / 14°C 88% 30.01 in
(1016 mb)
N 5.8 mph
(N 9 kph)
- 7SM
02:55
Overcast
61°F / 16°C 57°F / 14°C 88% 30.01 in
(1016 mb)
N 5.8 mph
(N 9 kph)
- 6SM
02:35
Overcast
61°F / 16°C 57°F / 14°C 88% 30.01 in
(1016 mb)
N 5.8 mph
(N 9 kph)
- 6SM
02:15
Overcast
61°F / 16°C 57°F / 14°C 88% 29.98 in
(1015 mb)
N 5.8 mph
(N 9 kph)
- 5SM
01:55
Overcast
61°F / 16°C 57°F / 14°C 88% 29.98 in
(1015 mb)
N 6.9 mph
(N 11 kph)
- 4SM
01:35
Overcast
61°F / 16°C 57°F / 14°C 88% 29.98 in
(1015 mb)
N 5.8 mph
(N 9 kph)
- 3SM
01:15
Overcast
61°F / 16°C 57°F / 14°C 88% 29.98 in
(1015 mb)
N 5.8 mph
(N 9 kph)
- 2 1/2SM
00:55
Overcast
61°F / 16°C 57°F / 14°C 88% 29.98 in
(1015 mb)
N 5.8 mph
(N 9 kph)
- 2SM
00:35
Overcast
61°F / 16°C 57°F / 14°C 88% 29.98 in
(1015 mb)
N 5.8 mph
(N 9 kph)
- 1 3/4SM
00:15
Overcast
61°F / 16°C 57°F / 14°C 88% 29.98 in
(1015 mb)
N 6.9 mph
(N 11 kph)
- 2 1/2SM
Time Weather Temperature Dewpoint Humidity Pressure Winds Precip Visibility


Weather for websites

WeatherForYou.com, LLC is not responsible for any damages or problems caused by this service. Current weather conditions are obtained from the closest station including government and personal stations which may have varying degrees of accuracy. Weather forecasts are derived from the NOAA NDFD. Like all things, this site belongs to Jesus Christ... He just trusts us to maintain it. If you have any questions or comments email webmaster@weatherforyou.com

Copyright © 2015, WeatherForYou.com LLC. All rights reserved.